{"data":{"norad_id":43477,"epoch":"2026-05-25T04:41:38.392800Z","epoch_age_seconds":61372,"freshness":"FRESH","line1":"1 43477U 18047B   26145.19558325  .00003342  00000+0  88217-4 0  9992","line2":"2 43477  88.9937 201.1141 0010283 183.8529 176.2649 15.38085864446266","mean_motion":15.38085864,"eccentricity":0.0010283,"inclination_deg":88.9937,"raan_deg":201.1141,"arg_perigee_deg":183.8529,"mean_anomaly_deg":176.2649,"bstar":8.8217e-5,"rev_number":44626,"period_min":93.622861616782,"perigee_km":444.74676557671,"apogee_km":458.79315222839,"semimajor_km":6829.9069589025,"source":"CELESTRAK","updated_at":"2026-05-25T13:37:55.829670Z"}}